Flag for Spain Weather past 2 weeks in Las Palmas, Canary Islands, Spain

72 °F

Scattered clouds.

Feels Like: 76 °F
Forecast: N/A
Wind: 16 mph from Northeast

Location: Las Palmas De Gran Canaria / Gando

Current Time: Nov 27, 2015 at 4:36:29 PM

Latest Report: Nov 27, 2015 at 4:00 PM

Visibility: N/A

Pressure: 30.04 "Hg

Humidity: 61%

Dew point: 57 °F

Location of Las PalmasLocation

Historic Weather in Las Palmas — Graph


Las Palmas temperature yesterday

Maximum temperature yesterday: 73 °F (at 12:30 PM)
Minimum temperature yesterday: 66 °F (at 2:30 AM)
Average temperature yesterday: 69 °F

Past Weeks' High & Low Weather Summary

High82 °F (Nov 14, 10:30 AM)94% (Nov 22, 1:30 PM)30.39 "Hg (Nov 22, 1:30 PM)
Low64 °F (Nov 22, 9:00 PM)26% (Nov 14, 8:00 PM)30.04 "Hg (Nov 27, 2:30 PM)
Average72 °F60%30.21 "Hg
* Reported Nov 12 3:00 PM — Nov 27 3:30 PM, Las Palmas, Weather by CustomWeather, © 2015

Note: Actual official high and low records may vary slightly from our data, if they occured in-between our weather recording intervals... More about our weather records


Las Palmas weather history for previous 24 hours

Time TempWeatherWind HumidityBarometerVisibility
3:30 PM
Fri, Nov 27
72 °FScattered clouds.16 mph65%30.04 "HgN/A
3:00 PM72 °FPartly sunny.14 mph65%30.04 "HgN/A
2:30 PM68 °FDrizzle. Partly sunny.16 mph78%30.04 "HgN/A
2:00 PM72 °FBroken clouds.17 mph65%30.07 "HgN/A
1:30 PM72 °FPartly sunny.17 mph69%30.07 "HgN/A
1:00 PM75 °FScattered clouds.14 mph50%30.07 "HgN/A
12:30 PM75 °FScattered clouds.14 mph47%30.09 "HgN/A
12:00 PM73 °FBroken clouds.15 mph53%30.09 "HgN/A
11:30 AM75 °FScattered clouds.15 mph50%30.12 "HgN/A
11:00 AM72 °FBroken clouds.13 mph53%30.12 "HgN/A
10:30 AM72 °FBroken clouds.14 mph53%30.12 "HgN/A
10:00 AM72 °FPartly sunny.10 mph50%30.12 "HgN/A
9:30 AM70 °FScattered clouds.10 mph60%30.12 "HgN/A
9:00 AM68 °FPartly sunny.10 mph60%30.12 "HgN/A
8:30 AM68 °FPartly sunny.10 mph60%30.09 "HgN/A
8:00 AM66 °FScattered clouds.9 mph68%30.09 "HgN/A
6:30 AM68 °FPassing clouds.8 mph60%30.09 "HgN/A
6:00 AM68 °FPassing clouds.10 mph60%30.09 "HgN/A
5:30 AM68 °FPassing clouds.9 mph60%30.09 "HgN/A
5:00 AM68 °FPassing clouds.10 mph60%30.09 "HgN/A
4:00 AM66 °FPassing clouds.10 mph64%30.09 "HgN/A
3:30 AM66 °FPassing clouds.10 mph64%30.09 "HgN/A
3:00 AM66 °FPassing clouds.10 mph64%30.12 "HgN/A
2:30 AM66 °FPassing clouds.10 mph64%30.12 "HgN/A
2:00 AM68 °FPassing clouds.10 mph60%30.12 "HgN/A
1:30 AM68 °FPassing clouds.12 mph60%30.12 "HgN/A
1:00 AM68 °FPassing clouds.13 mph64%30.12 "HgN/A
12:30 AM68 °FPassing clouds.13 mph64%30.12 "HgN/A
11:30 PM
Thu, Nov 26
70 °FPassing clouds.15 mph57%30.15 "HgN/A
10:30 PM68 °FPassing clouds.15 mph60%30.15 "HgN/A
10:00 PM68 °FPassing clouds.14 mph64%30.15 "HgN/A
9:30 PM68 °FPassing clouds.16 mph64%30.15 "HgN/A
9:00 PM68 °FPassing clouds.21 mph64%30.15 "HgN/A
8:30 PM68 °FPassing clouds.21 mph69%30.15 "HgN/A
8:00 PM70 °FPassing clouds.21 mph60%30.15 "HgN/A
7:30 PM70 °FPassing clouds.22 mph69%30.15 "HgN/A
7:00 PM70 °FPassing clouds.22 mph69%30.15 "HgN/A
6:30 PM70 °FPartly cloudy.22 mph69%30.15 "HgN/A
6:00 PM70 °FScattered clouds.21 mph69%30.15 "HgN/A
5:30 PM70 °FBroken clouds.18 mph69%30.15 "HgN/A
5:00 PM72 °FBroken clouds.18 mph65%30.15 "HgN/A
4:30 PM72 °FBroken clouds.18 mph65%30.15 "HgN/A
4:00 PM73 °FBroken clouds.17 mph53%30.15 "HgN/A
Weather by CustomWeather, © 2015

See weather overviewHow to use our weather pages